Parsons, KS

6:21 PM CDT on May 26, 2017 (GMT -0500)
Tri-City

Weather History for KPPF - February, 2014

Change the Weather History Date:

Friday, February 14, 2014

  Actual Average Record
Temperature  
Mean Temperature 38 °F -  
Max Temperature 50 °F 48 °F 76 °F (1954)
Min Temperature 25 °F 29 °F 12 °F (2007)
Degree Days  
Heating Degree Days 28    
Moisture  
Dew Point 27 °F    
Average Humidity 66    
Maximum Humidity 81    
Minimum Humidity 46    
Precipitation  
Precipitation 0.00 in - - ()
Sea Level Pressure  
Sea Level Pressure 29.92 in    
Wind  
Wind Speed 8 mph (North)    
Max Wind Speed 24 mph    
Max Gust Speed 33 mph    
Visibility 10 miles    
Events      
Averages and records for this station are not official NWS values.
T = Trace of Precipitation, MM = Missing Value Source: NWS Daily Summary

Daily Weather History Graph

Daily Weather History Graph

Search for Another Location

Airport or City:

Trip Planner

Search our weather history database for the weather conditions in past years. The results will help you decide how hot, cold, wet, or windy it might be!

Date:

Astronomy

Feb. 14, 2014 Rise Set
Actual Time 7:12 AM CST 6:00 PM CST
Civil Twilight 6:45 AM CST 6:27 PM CST
Nautical Twilight 6:14 AM CST 6:58 PM CST
Astronomical Twilight 5:44 AM CST 7:28 PM CST
Moon 6:04 PM CST (2/14) 6:40 AM CST (2/14)
Length of Visible Light 11h 42m
Length of Day
10h 48m
Full, 100% of the Moon is Illuminated
Feb 14
Full
Feb 14
Full
Feb 22
Last Quarter
Mar 1
New
Mar 8
First Quarter

Hourly Weather History & Observations

Time (CST) Temp. Windchill Dew Point Humidity Pressure Visibility Wind Dir Wind Speed Gust Speed Precip Events Conditions
12:52 AM 35.1 °F - 28.9 °F 78% 29.74 in 10.0 mi Calm Calm - N/A   Clear
1:52 AM 36.0 °F 33.3 °F 28.9 °F 76% 29.74 in 10.0 mi SW 3.5 mph - N/A   Partly Cloudy
2:52 AM 37.0 °F 34.5 °F 30.0 °F 76% 29.77 in 9.0 mi NNW 3.5 mph - N/A   Overcast
3:52 AM 37.0 °F 32.4 °F 30.0 °F 76% 29.71 in 9.0 mi SE 5.8 mph - N/A   Overcast
4:52 AM 39.9 °F 37.8 °F 30.0 °F 68% 29.65 in 10.0 mi SSE 3.5 mph - N/A   Scattered Clouds
5:52 AM 39.0 °F 31.8 °F 30.9 °F 73% 29.73 in 10.0 mi WNW 11.5 mph - N/A   Overcast
6:52 AM 36.0 °F 33.3 °F 30.0 °F 79% 29.73 in 8.0 mi SE 3.5 mph - N/A   Mostly Cloudy
7:52 AM 39.9 °F 35.1 °F 32.0 °F 73% 29.76 in 8.0 mi NW 6.9 mph - N/A   Mostly Cloudy
8:52 AM 45.0 °F 38.9 °F 34.0 °F 65% 29.80 in 10.0 mi NW 12.7 mph 19.6 mph N/A   Clear
9:52 AM 48.9 °F - 33.1 °F 54% 29.83 in 10.0 mi NNW 23.0 mph 32.2 mph N/A   Clear
10:52 AM 46.9 °F - 30.0 °F 52% 29.88 in 10.0 mi North 19.6 mph 32.2 mph N/A   Clear
11:52 AM 48.9 °F - 30.0 °F 48% 29.92 in 10.0 mi North 24.2 mph 33.4 mph N/A   Clear
12:52 PM 50.0 °F - 30.0 °F 46% 29.94 in 10.0 mi NNW 19.6 mph 29.9 mph N/A   Scattered Clouds
1:52 PM 48.0 °F - 30.0 °F 50% 29.96 in 10.0 mi North 17.3 mph 26.5 mph N/A   Mostly Cloudy
2:52 PM 48.0 °F - 28.0 °F 46% 29.97 in 10.0 mi NNW 19.6 mph 25.3 mph N/A   Partly Cloudy
3:52 PM 45.0 °F 37.6 °F 26.1 °F 48% 30.01 in 10.0 mi North 17.3 mph 28.8 mph N/A   Clear
4:52 PM 42.1 °F 34.5 °F 24.1 °F 49% 30.04 in 10.0 mi North 15.0 mph 21.9 mph N/A   Clear
5:52 PM 37.0 °F 31.0 °F 24.1 °F 59% 30.07 in 10.0 mi North 8.1 mph - N/A   Clear
6:52 PM 32.0 °F 27.5 °F 23.0 °F 69% 30.11 in 10.0 mi North 4.6 mph - N/A   Clear
7:52 PM 28.0 °F 21.7 °F 21.0 °F 75% 30.12 in 10.0 mi North 5.8 mph - N/A   Clear
8:52 PM 28.0 °F 24.2 °F 21.9 °F 78% 30.13 in 10.0 mi NNE 3.5 mph - N/A   Clear
9:52 PM 25.0 °F 20.7 °F 19.9 °F 81% 30.16 in 10.0 mi NE 3.5 mph - N/A   Clear
10:52 PM 26.1 °F 20.5 °F 21.0 °F 81% 30.14 in 10.0 mi ENE 4.6 mph - N/A   Clear
11:52 PM 26.1 °F 21.9 °F 19.9 °F 78% 30.14 in 10.0 mi ENE 3.5 mph - N/A   Clear